Location: Mount Cross
(36.6390°N, 79.4878°W)
Time: 12:02:56
(UTC+00:00)

Tiros 1 - Pass Details

Date: 30 March 2023
Orbit: 627 x 661 km, 48.4° (Epoch: 05 June)

Event Time Altitude Azimuth Distance (km) Brightness Sun altitude
Rises 15:37:52 0° 298° (WNW) 2,985 10.2 49.3°
Reaches altitude 10° 15:40:22 10° 290° (WNW) 2,067 9.5 49.7°
Maximum altitude 15:44:42 35° 225° (SW) 1,050 8.7 50.2°
Drops below altitude 10° 15:48:59 10° 159° (SSE) 2,041 10.5 50.8°
Sets 15:51:27 0° 151° (SSE) 2,942 11.1 51.1°
